map of CFK home
CFK - Airport
Location
City:  Chlef, Chlef, Algeria
Near (Alt.):Ech Cheliff
Name:Chlef International Airport
Old (Alt.):Aboubakr Belkaid Airport
ICAO:DAOI
IATA:CFK

Details
Type:Airport (Aerodrome, Airfield)
Use:Public/Civil, International (customs port of entry)
Latitude:3613'01"N (36.216944)
Longitude:120'24"E (1.340000)
Elevation:502 ft (153 m)
Variation:0.52E (WMM2015 magnetic declination)
0.10 annual change
Runways:2
Longest:9186 × 148 ft (2800 × 45 m), paved

Time
Time Zone:UTC+1
Local Time:

Weather
METAR:DAOI 060500Z 00000KT 8000 FEW026 SCT100 14/13 Q1019
TAF:DAOI 052300Z 0600/0624 VRB02KT 8000 SCT020 BKN100 PROPB40
TEMPO 0606/0612 5000 RA SCT026TCU
BECMG 0612/0614 22010KT FEW020 BKN026

Related Locations
Nearby:
Farthest:GIS: 12186 mi / 19612 km
Gisborne, GIS, NZ

Find:

   beyond  
but within

Other Information
Maps:
NOTAMs:
Links:
Sources:

  
flag of Algeria   

Airport Diagram

Airport diagram for CFK

Airport diagram PDF from AIP Algiers

Sectional Chart

Flight Planning
at skyvector.com

Satellite Image

Google Maps Satellite view

 

Copyright © 2004-2016 Karl L. Swartz. All rights reserved.
The Great Circle Mapper name and logo are trademarks of the Great Circle Mapper.
All other trademarks mentioned herein belong to their respective owners.
Please see credits for attibutions and further copyright information.

  Follow gcmap on Facebook Follow gcmap on Twitter Follow gcmap on Google+ GCmap on LinkedIn

hCard Microformat

Geo Microformat